Volver al catálogo

FENGYUN 1C DEB

ActivoPO
NORAD 31436·DEBRIS·🇨🇳 China

Lanzado May 10, 1999 desde Taiyuan Satellite Launch Center

Loading…

Próximos Pases (próximas 24 horas)

TLE

ActualizadoSource: Space-Track

Época: Sep 14, 2026, 05:36 UTC

1 31436U 99025BTY 26257.23350248  .00635927  00000-0  75895-2 0  9999
2 31436  98.8514 161.4868 0015507  90.9948  59.9161 15.58824939 10483

Sigue FENGYUN 1C DEB en tiempo real con AllMySat

Download on the App Store